DECAYED

COSMOS 2251 DEB, 35281 (Decayed)

Orbit data source: Space-Track

COSMOS 2251 DEB, 35281 was space debris in LEO originally from a launch on Wed, 16 Jun 1993 UTC launched from the Plesetsk Missile And Space Complex (PKMTR). The debris from Iridium 33, an American commercial communications satellite, has been tracked extensively since its accidental collision with the defunct Russian satellite Cosmos 2251 in 2009. This event, occurring at high speed in low Earth orbit (LEO), generated thousands of pieces of space debris, significantly increasing the risk of further collisions. The Iridium 33 debris cloud has impacted space traffic management and orbital debris mitigation strategies, making it a subject of ongoing study in space situational awareness.

Loading next visibility...
Identifier
35281, 1993-036AJK
Orbit
Decayed
Country
Flag of CISCIS
Related business
Manufacturer
Unknown
Mission
Decayed spacecraft
Bus & Motor
Unknown
Mass
Unknown
Launch date (UTC)
1993-06-16 (33 years ago)
Launch vehicle
Unknown
Launch site
Plesetsk Missile And Space Complex (PKMTR)
Object type
Payload
Rocket body
Debris
Shape & HBR
Unknown shape, 0.1 m
Radar Cross Section
Small (<0.1 m²)

Expand to show TLE details & history
Last TLE update: 1 year ago

TLE from 1 year ago
0 COSMOS 2251 DEB
1 35281U 93036AJK 25008.24387645  .06185291  94445-1  16004-1 0  9995
2 35281  73.9415 195.8882 0006486 354.0947   6.0215 16.01672896832202
Epoch: 2025-01-08T05:51Z
TLE epoch observation values (Epoch: 2025-01-08T05:51:10.925Z)
Latitude
0.00002°
Longitude
0.05321°
Altitude
268.299 km
Speed
7.749 km/s
True Right ascension
13h 03m 33s
True Declination
0° 00' 00"
Sunlit
Object was in daylight at epoch
Visualization orbit readout
Latitude
Unknown
Longitude
Unknown
Altitude
Unknown
Speed
Unknown
Apparent Right ascension
Unknown
Apparent Declination
Unknown
Sunlit
N/A
Visualization observer readout
Local Sidereal Time
19:48:34
Azimuth
Unknown
Elevation
Unknown
Doppler factor
Unknown
Orbital elements
Apogee altitude
271.549 km
Perigee altitude
262.928 km
Semi-major axis
6,645.375 km
Eccentricity
0.00065
Inclination
73.9415°
RAAN
195.8882°
Arg. of periapsis
354.0947°
True anomaly
6.0293°
Mean anomaly
6.0215°
Eccentric anomaly
6.0254°
Mean motion
4.00649 °/min
Orbital period
89.85 mins
BSTAR
0.016004
Loading maneuver chart data...
Computing Atmospheric mass density...

Documentation

Showing up to 5 results
|